This is the latest recevied weather packets stored in our database for station/object OE-11179. If no packets are shown the sender has not sent any weather packets the latest 10 day(s).
| Time | Temp. | Humidity | Pressure | Rain* | Wind** | Luminosity | Snow |
|---|---|---|---|---|---|---|---|
| 1787906504 | 22.78° C | 58% | - | 0 mm | - | - | - |
| 1787906129 | 22.22° C | 61% | - | 0 mm | - | - | - |
| 1787905528 | 21.11° C | 64% | - | 0 mm | - | - | - |
| 1787904705 | 20.56° C | 67% | - | 0 mm | - | - | - |
| 1787904332 | 20° C | 68% | - | 0 mm | - | - | - |
| 1787903732 | 18.89° C | 75% | - | 0 mm | - | - | - |
| 1787902904 | 18.33° C | 73% | - | 0 mm | - | - | - |
| 1787902532 | 17.78° C | 76% | - | 0 mm | - | - | - |
| 1787901932 | 18.33° C | 79% | - | 0 mm | - | - | - |
| 1787901104 | 17.78° C | 80% | - | 0 mm | - | - | - |
| 1787900731 | 17.22° C | 82% | - | 0 mm | - | - | - |
| 1787900132 | 16.67° C | 82% | - | 0 mm | - | - | - |
| 1787899305 | 16.67° C | 84% | - | 0 mm | - | - | - |
| 1787898932 | 16.11° C | 85% | - | 0 mm | - | - | - |
| 1787898332 | 15.56° C | 85% | - | 0 mm | - | - | - |
| 1787897504 | 15.56° C | 86% | - | 0 mm | - | - | - |
| 1787897131 | 15° C | 88% | - | 0 mm | - | - | - |
| 1787896531 | 15° C | 91% | - | 0 mm | - | - | - |
| 1787895704 | 14.44° C | 92% | - | 0 mm | - | - | - |
| 1787895332 | 14.44° C | 93% | - | 0 mm | - | - | - |
| 1787894732 | 13.89° C | 94% | - | 0 mm | - | - | - |
| 1787893905 | 13.89° C | 93% | - | 0 mm | - | - | - |
| 1787893532 | 13.33° C | 94% | - | 0 mm | - | - | - |
| 1787892932 | 13.89° C | 93% | - | 0 mm | - | - | - |
| 1787892104 | 13.89° C | 92% | - | 0 mm | - | - | - |
* Rain latest hour (hover to see other rain measurements)
** Current wind speed in m/s (hover to see current wind gust speed)